Regional Weather Roundup
Issued by NWS

Home | Current Version | Previous Version | Graphics & Text | Print | Product List | Glossary On
Versions: 1 2 3 4 5 6 7 8 9 10 11 12 13 14 15 16 17 18 19 20 21 22 23 24 25 26 27 28 29 30 31 32 33 34 35 36 37 38 39 40 41 42 43 44 45 46 47 48 49 50
094
ASUS43 KFSD 291402
RWRSD

WEATHER ROUNDUP FOR SOUTH DAKOTA
NATIONAL WEATHER SERVICE SIOUX FALLS SD
900 AM CDT THU SEP 29 2016

NOTE: "FAIR" INDICATES FEW OR NO CLOUDS BELOW 12,000 FEET WITH NO
SIGNIFICANT WEATHER AND/OR OBSTRUCTIONS TO VISIBILITY.


SDZ001>005-009-010-012>017-291500-
NORTHWEST AND NORTH CENTRAL SOUTH DAKOTA

CITY           SKY/WX    TMP DP  RH WIND       PRES   REMARKS
BUFFALO          N/A     49  42  77 SE9       30.23S
FAITH            N/A     48  44  86 SE14      30.33S
MOBRIDGE       SUNNY     51  45  79 SE8       30.38S
$$

SDZ012>016-024>037-041>051-057-063-072>074-291500-
SOUTHWEST AND SOUTH CENTRAL SOUTH DAKOTA

CITY           SKY/WX    TMP DP  RH WIND       PRES   REMARKS
RAPID CTY ARPT SUNNY     45  37  73 SE6       30.31S
PIERRE         SUNNY     47  45  93 SE8       30.39S
CUSTER         SUNNY     49  38  65 CALM      30.39R
ELLSWORTH AFB  SUNNY     51  35  55 S9        30.30R
PHILIP         SUNNY     47  44  90 SE6       30.35S
PINE RIDGE     SUNNY     53  39  59 S10       30.34R
WINNER         FAIR      50  44  80 S7        30.43R
$$

SDZ004>011-016>023-039-040-291500-
NORTHEAST SOUTH DAKOTA

CITY           SKY/WX    TMP DP  RH WIND       PRES   REMARKS
ABERDEEN       MOSUNNY   42  41  96 CALM      30.47R
WATERTOWN      SUNNY     46  43  89 CALM      30.47R
SISSETON         N/A     46  43  89 CALM      30.48R
$$

SDZ017-020-022-023-036>040-048>070-291500-
SOUTHEAST SOUTH DAKOTA

CITY           SKY/WX    TMP DP  RH WIND       PRES   REMARKS
SIOUX FALLS    SUNNY     49  46  90 N3        30.47R
HURON          SUNNY     47  45  93 SE5       30.46R
CHAMBERLAIN    SUNNY     48  47  97 SE5       30.44S
MITCHELL       MOSUNNY   43  43 100 CALM      30.48R
YANKTON        SUNNY     46  45  93 CALM      30.45S
$$

ABBREVIATIONS USED IN REMARKS
   TC - TEMPERATURE IN CELSIUS
  WCI - WIND CHILL INDEX
   HX - HEAT INDEX
  VSB - VISIBILITY





USA.gov is the U.S. government's official web portal to all federal, state and local government web resources and services.